Regional Weather Roundup
Issued by NWS Sterling, VA

Home | Current Version | Previous Version | Text Only | Print | Product List | Glossary On
Versions: 1 2 3 4 5 6 7 8 9 10 11 12 13 14 15 16 17 18 19 20 21 22 23 24 25 26 27 28
000
ASUS41 KLWX 251510
RWRLWX

REGIONAL WEATHER ROUNDUP
NATIONAL WEATHER SERVICE BALTIMORE MD/WASHINGTON DC
1000 AM EST SAT FEB 25 2017

Note: "FAIR" indicates few or no clouds below 12,000 feet
with no significant weather and/or obstructions to visibility.
 TC=TEMPERATURE CELSIUS

 * =Non NWS site. Station does not report precipitation (e.g. rain,
    snow, etc.), thunder, or fog.

DCZ001-MDZ009-015-VAZ040>042-051-053>054-251600-
WASHINGTON METRO

CITY           SKY/WX    TMP DP  RH WIND       PRES   REMARKS
WASHINGTON NAT PTSUNNY   66  58  75 S12       29.64F
DULLES         PTSUNNY   67  57  70 S15G25    29.62F
ANDREWS AFB    MOSUNNY   69  58  67 S15       29.65F
FT BELVOIR     MOSUNNY   67  57  68 S9        29.64F
QUANTICO       MOSUNNY   59  55  87 SW8       29.66F
COLLEGE PARK*  MOSUNNY   68  55  64 S10G20    29.63F
LEESBURG*      MOSUNNY   66  61  82 MISG      29.63F
MANASSAS*      PTSUNNY   68  58  70 S15       29.63F
GAITHERSBURG*  CLOUDY    64  55  72 S13       29.67F

$$

MDZ006>007-011-014-251600-
BALTIMORE METRO

CITY           SKY/WX    TMP DP  RH WIND       PRES   REMARKS
BWI AIRPORT    PTSUNNY   68  58  70 S12G23    29.63F
MD SCIENCE CTR   N/A     67  57  70 MISG      29.64F
MARTIN STATE   PTSUNNY   61  59  94 SE14      29.67F
ANNAPOLIS      MOSUNNY   60  56  86 S13G23    29.65F
FORT MEADE*    MOSUNNY   68  55  64 SW15G24   29.66F

$$

MDZ012-015-019>023-251600-
MARYLAND EASTERN SHORE

CITY           SKY/WX    TMP DP  RH WIND       PRES   REMARKS
OCEAN CITY     FOG       53  51  93 S9        29.74F VSB 1/2
SALISBURY      SUNNY     68  59  73 S12       29.72F
BAY BRIDGE AP* MOSUNNY   64  57  77 S15G23    29.66F
CAMBRIDGE*     SUNNY     66  59  77 S12G20    29.70F
EASTON*        SUNNY     68  59  73 S14       29.71F

$$

MDZ017>025-251600-
SOUTHERN MARYLAND

CITY           SKY/WX    TMP DP  RH WIND       PRES   REMARKS
PATUXENT RIVER PTSUNNY   62  56  80 SE9       29.68F
ST INIGOES     MOSUNNY   66  58  75 SE12      29.67F
LEONARDTOWN*   MOSUNNY   66  57  72 S6        29.69F

$$

MDZ003>005-251600-
NORTH CENTRAL MARYLAND

CITY           SKY/WX    TMP DP  RH WIND       PRES   REMARKS
FREDERICK*     CLOUDY    66  59  77 S10       29.64F
HAGERSTOWN APT CLOUDY    64  57  78 SW10      29.59S
WESTMINSTER*   MOSUNNY   66  59  77 S13       29.61F

$$

MDZ501>502-251600-
WESTERN MARYLAND

CITY           SKY/WX    TMP DP  RH WIND       PRES   REMARKS
OAKLAND*       CLOUDY    50  48  93 SW13G22   29.57F
CUMBERLAND*    CLOUDY    55  54  94 S5        29.62F

$$

VAZ025>031-251600-
SHENANDOAH VALLEY

CITY           SKY/WX    TMP DP  RH WIND       PRES   REMARKS
WINCHESTER*    CLOUDY    63  54  72 W3        29.60S
FRONT ROYAL*   CLOUDY    64  54  68 SW3       29.59F
LURAY*         PTSUNNY   66  57  72 SW8       29.61S
NEW MARKET*    CLOUDY    64  53  68 SW9       29.60F
STAUNTON*      CLOUDY    64  55  71 SW6       29.64F
WAYNESBORO*    CLOUDY    64  54  68 CALM      29.64S

$$

WVZ021-048>050-054>055-251600-
EASTERN WEST VIRGINIA PANHANDLE

CITY           SKY/WX    TMP DP  RH WIND       PRES   REMARKS
MARTINSBURG    CLOUDY    64  56  75 SW5       29.59S
PETERSBURG*    LGT RAIN  58  55  90 SE6       29.59F

$$

VAZ036>039-050-251600-
CENTRAL FOOTHILLS

CITY           SKY/WX    TMP DP  RH WIND       PRES   REMARKS
CHARLOTTESVILL CLOUDY    68  57  68 S15G24    29.63F
CULPEPER*      PTSUNNY   67  59  74 SW14      29.65F
ORANGE*        PTSUNNY   64  55  72 S14G24    29.65F
GORDONSVILLE*  CLOUDY    66  58  75 SW14G25   29.64F
WARRENTON*     CLOUDY    69  55  61 SW9G20    29.64S

$$

VAZ055>057-251600-
NORTH AND CENTRAL PIEDMONT

CITY           SKY/WX    TMP DP  RH WIND       PRES   REMARKS
FREDERICKSBRG* PTSUNNY   68  59  73 S14       29.65S
STAFFORD*      PTSUNNY   67  59  76 SW10      29.69F

$$

NCZ024-NYZ072-PAZ021-071-VAZ022-071-251600-
OTHER REGIONAL OBSERVATIONS

CITY           SKY/WX    TMP DP  RH WIND       PRES   REMARKS
NEW YORK CITY  PTSUNNY   55  52  89 VRB5      29.75F
PHILADELPHIA   PTSUNNY   67  56  67 S14       29.68F
PITTSBURGH     CLOUDY    46  43  89 W9        29.59S
ROANOKE        LGT RAIN  61  53  75 W12G20    29.66F
RICHMOND       MOSUNNY   69  59  70 S17G24    29.68F
RALEIGH        PTSUNNY   68  56  65 SW16      29.72F

$$

ANZ530>537-251600-
MARINE OBSERVATIONS

STATION/POSITION TIME  TEMP    WIND        PRES
                       AIR SEA DIR/SP/G
                 (UTC) (F)     (DEG/KT/KT) (MB)
THOMAS PT LIGHT  1500   55 45  160/ 19/ 20   N/A
BALT KEY BRIDGE  1448   58     150/ 11/ 12 1003.7F
COVE POINT       1448   47     190/ 11/ 12 1006.0F
LEWISETTA        1448   64 51  220/ 11/ 15 1005.0F
SOLOMONS ISLAND  1448   62 46  190/ 11/ 13   N/A
PINEY POINT      1448          200/  9/  9   N/A

$$





USA.gov is the U.S. government's official web portal to all federal, state and local government web resources and services.